Tracking 18784 objects as of 18-August-2017
HD Live streaming from Space Station
objects crossing your sky now

BEESAT 4

Track BEESAT 4 now!
10-day predictions
BEESAT 4 is classified as:


NORAD ID: 41619
Int'l Code: 2016-040W
Perigee: 502.4 km
Apogee: 518.0 km
Inclination: 97.5 °
Period: 94.7 minutes
Semi major axis: 6881 km
RCS: Unknown
Launch date: June 22, 2016
Source: Germany (GER)
Launch site: SIRHARIKOTA (SRI)
Uplink (MHz):
Downlink (MHz): 435.950
Beacon (MHz): 435.950
Mode: 4800bps GMSK CW
Call sign: DP0BEH
Status: Active

Your satellite tracking list
Your tracking list is empty





NASA's NSSDC Master Catalog

Two Line Element Set (TLE):
1 41619U 16040W   17229.70993909 +.00001543 +00000-0 +72832-4 0  9998
2 41619 097.4577 291.4936 0011336 205.9888 154.0780 15.20924467051944
Source of the keplerian elements: AFSPC